Location: Grand Moustoir
(47.8355°N, 3.3120°W)
Time: 09:12:24
(UTC+00:00)

Lacrosse 5 - Pass Details

Date: 20 January 2020
Orbit: 717 x 722 km, 57.0° (Epoch: 06 February)

Event Time Altitude Azimuth Distance (km) Brightness Sun altitude
Rises 07:00:12 0° 206° (SSW) 3,114 5.1 -9.0°
Reaches altitude 10° 07:02:41 10° 198° (SSW) 2,197 4.4 -8.7°
Maximum altitude 07:07:22 39° 131° (SE) 1,077 3.5 -7.9°
Drops below altitude 10° 07:12:03 10° 64° (ENE) 2,206 5.0 -7.2°
Sets 07:14:33 0° 57° (ENE) 3,129 5.7 -6.8°
